Hourly Data Report for September 19, 2017

All times are specified in Local Standard Time (LST). Add 1 hour to adjust for Daylight Saving Time where and when it is observed.

FREDERICTON
NEW BRUNSWICK

45°52'08.000" N
66°32'14.000" W
20.70 m
8101505
71700
YFC

Related Data

No related data is available for this station

Download Data

Hourly Data (September 2017)
Hourly Data Report for September 19, 2017
Temp Definition
°C
Dew Point Temp Definition
°C
Rel Hum Definition
%
Wind Dir Definition
10's deg

Wind Spd Definition
km/h
Visibility Definition
km
Stn Press Definition
kPa
Hmdx Definition


Wind Chill Definition


Weather Definition


TIME
00:00 Legend Double Dagger 15.8 15.2 96 24 4 3.2 102.17     Fog
01:00 Legend Double Dagger 15.7 15.2 97   0 4.0 102.19     Rain,Fog
02:00 Legend Double Dagger 15.8 15.3 97 10 4 8.1 102.13     Fog
03:00 Legend Double Dagger 16.1 15.8 98 12 4 4.0 102.09     Fog
04:00 Legend Double Dagger 16.0 15.7 98 16 4 8.1 102.09     Fog
05:00 Legend Double Dagger 16.2 15.7 97   0 9.7 102.09     Fog
06:00 Legend Double Dagger 16.3 15.8 97 LegendMM 4 8.1 102.12     Fog
07:00 Legend Double Dagger 16.5 16.2 98   0 9.7 102.13     Fog
08:00 Legend Double Dagger 17.1 16.5 96 9 4 14.5 102.11     LegendNANA
09:00 Legend Double Dagger 17.2 16.7 97 11 5 4.0 102.15     Fog
10:00 Legend Double Dagger 17.8 17.0 95 8 5 12.9 102.15     LegendNANA
11:00 Legend Double Dagger 18.7 17.0 90 LegendMM 4 16.1 102.11     LegendNANA
12:00 Legend Double Dagger 20.6 17.8 84   0 16.1 102.06 26   LegendNANA
13:00 Legend Double Dagger 21.4 17.4 78 LegendMM 4 16.1 101.98 27   LegendNANA
14:00 Legend Double Dagger 21.6 18.0 80 10 9 16.1 101.90 28   LegendNANA
15:00 Legend Double Dagger 22.6 17.2 71 14 11 16.1 101.84 28   LegendNANA
16:00 Legend Double Dagger 22.2 17.3 74 17 8 16.1 101.83 28   LegendNANA
17:00 Legend Double Dagger 21.6 17.5 77 15 9 16.1 101.83 27   LegendNANA
18:00 Legend Double Dagger 21.0 17.9 82 14 8 16.1 101.79 27   LegendNANA
19:00 Legend Double Dagger 19.3 17.7 90   0 16.1 101.81     LegendNANA
20:00 Legend Double Dagger 18.9 17.4 91 12 5 11.3 101.79     LegendNANA
21:00 Legend Double Dagger 18.1 17.1 94 35 4 16.1 101.79     LegendNANA
22:00 Legend Double Dagger 18.5 17.7 95 3 4 16.1 101.80     LegendNANA
23:00 Legend Double Dagger 18.7 17.7 94 5 4 16.1 101.75     Rain

Notes on Data Quality.

Legend

  • E = Estimated
  • M = Missing
  • NA = Not Available
  • ‡ = Partner data that is not subject to review by the National Climate Archives
Date modified: